Time,TemperatureF,DewpointF,PressureIn,WindDirection,WindDirectionDegrees,WindSpeedMPH,WindSpeedGustMPH,Humidity,HourlyPrecipIn,Conditions,Clouds,dailyrainin,SoftwareType,DateUTC
2013-01-20 00:06:00,65.7,65.4,29.95,NW,315,1.7,-999.0,99,-99.99,,,0.00,Acu-Link.com,2013-01-20 05:06:00,
2013-01-20 00:21:00,65.7,65.4,29.95,NW,315,2.2,-999.0,99,-99.99,,,0.00,Acu-Link.com,2013-01-20 05:21:00,
2013-01-20 00:37:00,65.5,65.2,29.95,NW,315,2.2,-999.0,99,-99.99,,,0.00,Acu-Link.com,2013-01-20 05:37:00,
2013-01-20 00:52:00,65.3,65.0,29.95,NW,315,2.2,-999.0,99,-99.99,,,0.00,Acu-Link.com,2013-01-20 05:52:00,
2013-01-20 01:07:00,64.9,64.6,29.95,NW,315,0.0,-999.0,99,-99.99,,,0.00,Acu-Link.com,2013-01-20 06:07:00,
2013-01-20 01:22:00,64.8,64.5,29.94,NW,315,2.7,-999.0,99,-99.99,,,0.00,Acu-Link.com,2013-01-20 06:22:00,
2013-01-20 01:52:00,64.2,63.9,29.94,NW,315,0.0,-999.0,99,-99.99,,,0.00,Acu-Link.com,2013-01-20 06:52:00,
2013-01-20 02:07:00,64.2,63.9,29.94,NW,315,0.0,-999.0,99,-99.99,,,0.00,Acu-Link.com,2013-01-20 07:07:00,
2013-01-20 02:22:00,64.4,64.1,29.94,NNE,22,1.7,-999.0,99,-99.99,,,0.01,Acu-Link.com,2013-01-20 07:22:00,
2013-01-20 02:37:00,64.4,64.1,29.93,NNE,22,1.7,-999.0,99,-99.99,,,0.01,Acu-Link.com,2013-01-20 07:37:00,
2013-01-20 02:53:00,64.2,63.9,29.93,NNW,337,1.7,-999.0,99,-99.99,,,0.01,Acu-Link.com,2013-01-20 07:53:00,
2013-01-20 03:08:00,64.2,63.9,29.93,North,0,0.0,-999.0,99,-99.99,,,0.01,Acu-Link.com,2013-01-20 08:08:00,
2013-01-20 03:23:00,64.2,63.9,29.93,North,0,1.1,-999.0,99,-99.99,,,0.01,Acu-Link.com,2013-01-20 08:23:00,
2013-01-20 03:38:00,64.0,63.7,29.92,North,0,1.7,-999.0,99,-99.99,,,0.01,Acu-Link.com,2013-01-20 08:38:00,
2013-01-20 03:53:00,63.9,63.6,29.92,North,0,0.0,-999.0,99,-99.99,,,0.01,Acu-Link.com,2013-01-20 08:53:00,
2013-01-20 04:14:00,63.7,63.4,29.93,North,0,2.2,-999.0,99,-99.99,,,0.01,Acu-Link.com,2013-01-20 09:14:00,
2013-01-20 04:30:00,63.9,63.6,29.93,North,0,0.0,-999.0,99,-99.99,,,0.01,Acu-Link.com,2013-01-20 09:30:00,
2013-01-20 04:45:00,64.2,63.9,29.93,North,0,1.7,-999.0,99,-99.99,,,0.01,Acu-Link.com,2013-01-20 09:45:00,
2013-01-20 05:00:00,64.4,64.1,29.93,North,0,3.2,-999.0,99,-99.99,,,0.01,Acu-Link.com,2013-01-20 10:00:00,
2013-01-20 05:15:00,64.8,64.5,29.93,NE,45,2.2,-999.0,99,-99.99,,,0.01,Acu-Link.com,2013-01-20 10:15:00,
2013-01-20 05:30:00,65.1,64.8,29.94,North,0,2.2,-999.0,99,-99.99,,,0.01,Acu-Link.com,2013-01-20 10:30:00,
2013-01-20 05:45:00,65.1,64.8,29.94,NNW,337,2.2,-999.0,99,-99.99,,,0.01,Acu-Link.com,2013-01-20 10:45:00,
2013-01-20 06:00:00,64.9,64.6,29.94,NNW,337,1.7,-999.0,99,-99.99,,,0.01,Acu-Link.com,2013-01-20 11:00:00,
2013-01-20 06:15:00,64.8,64.5,29.95,NNW,337,2.7,-999.0,99,-99.99,,,0.01,Acu-Link.com,2013-01-20 11:15:00,
2013-01-20 06:31:00,64.6,64.3,29.95,NNW,337,2.2,-999.0,99,-99.99,,,0.01,Acu-Link.com,2013-01-20 11:31:00,
2013-01-20 06:46:00,64.6,64.3,29.95,NNW,337,2.7,-999.0,99,-99.99,,,0.01,Acu-Link.com,2013-01-20 11:46:00,
2013-01-20 07:01:00,64.6,64.3,29.96,WNW,292,3.2,-999.0,99,-99.99,,,0.01,Acu-Link.com,2013-01-20 12:01:00,
2013-01-20 07:16:00,64.6,64.3,29.96,NW,315,0.0,-999.0,99,-99.99,,,0.01,Acu-Link.com,2013-01-20 12:16:00,
2013-01-20 07:31:00,64.9,64.6,29.96,NW,315,0.0,-999.0,99,-99.99,,,0.01,Acu-Link.com,2013-01-20 12:31:00,
2013-01-20 07:46:00,65.8,65.5,29.96,NW,315,0.0,-999.0,99,-99.99,,,0.01,Acu-Link.com,2013-01-20 12:46:00,
2013-01-20 08:01:00,67.5,67.2,29.98,NW,315,0.0,-999.0,99,-99.99,,,0.01,Acu-Link.com,2013-01-20 13:01:00,
2013-01-20 08:16:00,66.7,66.4,29.97,NW,315,2.2,-999.0,99,-99.99,,,0.01,Acu-Link.com,2013-01-20 13:16:00,
2013-01-20 08:31:00,68.5,68.2,29.98,NW,315,2.7,-999.0,99,-99.99,,,0.01,Acu-Link.com,2013-01-20 13:31:00,
2013-01-20 08:47:00,68.5,68.2,30.00,NW,315,2.7,-999.0,99,-99.99,,,0.01,Acu-Link.com,2013-01-20 13:47:00,
2013-01-20 09:02:00,69.6,68.4,30.00,NW,315,3.2,-999.0,96,-99.99,,,0.01,Acu-Link.com,2013-01-20 14:02:00,
2013-01-20 09:17:00,70.3,68.2,30.00,WNW,292,2.2,-999.0,93,-99.99,,,0.01,Acu-Link.com,2013-01-20 14:17:00,
2013-01-20 09:32:00,71.4,68.6,30.00,NW,315,3.7,-999.0,91,-99.99,,,0.01,Acu-Link.com,2013-01-20 14:32:00,
2013-01-20 09:47:00,71.8,68.7,30.00,SW,225,2.2,-999.0,90,-99.99,,,0.01,Acu-Link.com,2013-01-20 14:47:00,
2013-01-20 10:02:00,73.4,68.6,29.99,ENE,67,5.8,-999.0,85,-99.99,,,0.01,Acu-Link.com,2013-01-20 15:02:00,
2013-01-20 10:17:00,73.6,68.1,29.99,NNW,337,4.7,-999.0,83,-99.99,,,0.01,Acu-Link.com,2013-01-20 15:17:00,
2013-01-20 10:32:00,74.8,68.2,29.98,WSW,247,3.7,-999.0,80,-99.99,,,0.01,Acu-Link.com,2013-01-20 15:32:00,
2013-01-20 10:47:00,75.0,68.0,29.98,West,270,2.2,-999.0,79,-99.99,,,0.01,Acu-Link.com,2013-01-20 15:47:00,
2013-01-20 11:03:00,76.8,68.3,29.98,WNW,292,4.2,-999.0,75,-99.99,,,0.01,Acu-Link.com,2013-01-20 16:03:00,
2013-01-20 11:18:00,76.6,67.7,29.97,NE,45,3.7,-999.0,74,-99.99,,,0.01,Acu-Link.com,2013-01-20 16:18:00,
2013-01-20 11:33:00,77.7,67.1,29.95,ESE,112,2.2,-999.0,70,-99.99,,,0.01,Acu-Link.com,2013-01-20 16:33:00,
2013-01-20 11:48:00,76.6,67.3,29.95,North,0,2.7,-999.0,73,-99.99,,,0.01,Acu-Link.com,2013-01-20 16:48:00,
2013-01-20 12:03:00,77.4,66.4,29.94,North,0,3.7,-999.0,69,-99.99,,,0.01,Acu-Link.com,2013-01-20 17:03:00,
2013-01-20 12:18:00,78.1,65.8,29.93,NNE,22,2.2,-999.0,66,-99.99,,,0.01,Acu-Link.com,2013-01-20 17:18:00,
2013-01-20 12:33:00,81.5,66.7,29.91,South,180,1.7,-999.0,61,-99.99,,,0.01,Acu-Link.com,2013-01-20 17:33:00,
2013-01-20 12:48:00,77.7,67.9,29.91,East,90,6.3,-999.0,72,-99.99,,,0.01,Acu-Link.com,2013-01-20 17:48:00,
2013-01-20 13:03:00,77.5,67.3,29.91,ESE,112,3.7,-999.0,71,-99.99,,,0.01,Acu-Link.com,2013-01-20 18:03:00,
2013-01-20 13:19:00,77.7,67.9,29.91,NNE,22,2.7,-999.0,72,-99.99,,,0.01,Acu-Link.com,2013-01-20 18:19:00,
2013-01-20 13:34:00,77.2,68.6,29.89,ENE,67,3.7,-999.0,75,-99.99,,,0.01,Acu-Link.com,2013-01-20 18:34:00,
2013-01-20 13:49:00,77.0,68.8,29.89,ESE,112,5.8,-999.0,76,-99.99,,,0.01,Acu-Link.com,2013-01-20 18:49:00,
2013-01-20 14:04:00,76.5,68.7,29.88,NE,45,6.8,-999.0,77,-99.99,,,0.01,Acu-Link.com,2013-01-20 19:04:00,
2013-01-20 14:19:00,76.6,68.5,29.88,ENE,67,6.8,-999.0,76,-99.99,,,0.01,Acu-Link.com,2013-01-20 19:19:00,
2013-01-20 14:34:00,75.9,68.5,29.88,NNE,22,5.8,-999.0,78,-99.99,,,0.01,Acu-Link.com,2013-01-20 19:34:00,
2013-01-20 14:49:00,77.4,68.4,29.88,NE,45,4.7,-999.0,74,-99.99,,,0.01,Acu-Link.com,2013-01-20 19:49:00,
2013-01-20 15:04:00,77.7,68.3,29.87,ENE,67,6.3,-999.0,73,-99.99,,,0.01,Acu-Link.com,2013-01-20 20:04:00,
2013-01-20 15:19:00,77.2,67.9,29.87,ESE,112,6.8,-999.0,73,-99.99,,,0.01,Acu-Link.com,2013-01-20 20:19:00,
2013-01-20 15:35:00,76.5,68.0,29.86,NE,45,3.2,-999.0,75,-99.99,,,0.01,Acu-Link.com,2013-01-20 20:35:00,
2013-01-20 15:50:00,76.6,67.3,29.88,East,90,3.2,-999.0,73,-99.99,,,0.01,Acu-Link.com,2013-01-20 20:50:00,
2013-01-20 16:05:00,76.1,67.6,29.88,NE,45,6.3,-999.0,75,-99.99,,,0.01,Acu-Link.com,2013-01-20 21:05:00,
2013-01-20 16:20:00,75.0,66.5,29.90,NNE,22,8.3,-999.0,75,-99.99,,,0.01,Acu-Link.com,2013-01-20 21:20:00,
2013-01-20 16:35:00,74.1,67.2,29.89,NNE,22,5.8,-999.0,79,-99.99,,,0.01,Acu-Link.com,2013-01-20 21:35:00,
2013-01-20 16:50:00,72.9,66.7,29.89,North,0,5.8,-999.0,81,-99.99,,,0.01,Acu-Link.com,2013-01-20 21:50:00,
2013-01-20 17:05:00,72.7,66.5,29.89,NE,45,4.7,-999.0,81,-99.99,,,0.01,Acu-Link.com,2013-01-20 22:05:00,
2013-01-20 17:20:00,72.7,66.5,29.89,ENE,67,4.2,-999.0,81,-99.99,,,0.01,Acu-Link.com,2013-01-20 22:20:00,
2013-01-20 17:35:00,72.5,66.7,29.89,NE,45,3.7,-999.0,82,-99.99,,,0.01,Acu-Link.com,2013-01-20 22:35:00,
2013-01-20 17:51:00,72.5,66.7,29.90,NNE,22,3.7,-999.0,82,-99.99,,,0.01,Acu-Link.com,2013-01-20 22:51:00,
2013-01-20 18:06:00,72.1,66.6,29.88,NE,45,4.2,-999.0,83,-99.99,,,0.01,Acu-Link.com,2013-01-20 23:06:00,
2013-01-20 18:21:00,71.8,66.7,29.89,East,90,2.2,-999.0,84,-99.99,,,0.01,Acu-Link.com,2013-01-20 23:21:00,
2013-01-20 19:06:00,71.4,67.0,29.89,NE,45,2.2,-999.0,86,-99.99,,,0.01,Acu-Link.com,2013-01-21 00:06:00,
2013-01-20 19:21:00,71.4,67.0,29.89,NNE,22,2.7,-999.0,86,-99.99,,,0.01,Acu-Link.com,2013-01-21 00:21:00,
2013-01-20 19:37:00,71.2,67.1,29.89,NW,315,3.7,-999.0,87,-99.99,,,0.01,Acu-Link.com,2013-01-21 00:37:00,
2013-01-20 19:52:00,71.2,67.1,29.90,NE,45,3.2,-999.0,87,-99.99,,,0.01,Acu-Link.com,2013-01-21 00:52:00,
2013-01-20 20:07:00,71.2,67.1,29.90,NNE,22,1.7,-999.0,87,-99.99,,,0.01,Acu-Link.com,2013-01-21 01:07:00,
2013-01-20 20:22:00,71.2,67.1,29.90,NNE,22,2.7,-999.0,87,-99.99,,,0.01,Acu-Link.com,2013-01-21 01:22:00,
2013-01-20 20:37:00,71.2,67.1,29.90,NNE,22,0.0,-999.0,87,-99.99,,,0.01,Acu-Link.com,2013-01-21 01:37:00,
2013-01-20 20:52:00,71.2,67.1,29.89,NNE,22,2.2,-999.0,87,-99.99,,,0.01,Acu-Link.com,2013-01-21 01:52:00,
2013-01-20 21:07:00,71.2,66.8,29.90,NE,45,2.7,-999.0,86,-99.99,,,0.01,Acu-Link.com,2013-01-21 02:07:00,
2013-01-20 21:22:00,71.6,66.5,29.91,NNE,22,2.2,-999.0,84,-99.99,,,0.01,Acu-Link.com,2013-01-21 02:22:00,
2013-01-20 21:38:00,71.6,66.5,29.91,NNE,22,2.7,-999.0,84,-99.99,,,0.01,Acu-Link.com,2013-01-21 02:38:00,
2013-01-20 21:53:00,71.4,67.0,29.91,NNE,22,0.0,-999.0,86,-99.99,,,0.01,Acu-Link.com,2013-01-21 02:53:00,
2013-01-20 22:08:00,71.1,67.4,29.90,NNE,22,0.0,-999.0,88,-99.99,,,0.01,Acu-Link.com,2013-01-21 03:08:00,
2013-01-20 22:23:00,70.7,67.3,29.90,NNE,22,0.0,-999.0,89,-99.99,,,0.01,Acu-Link.com,2013-01-21 03:23:00,
2013-01-20 22:38:00,70.7,67.3,29.90,NNE,22,2.7,-999.0,89,-99.99,,,0.01,Acu-Link.com,2013-01-21 03:38:00,
2013-01-20 22:53:00,70.9,67.5,29.91,NNE,22,0.0,-999.0,89,-99.99,,,0.01,Acu-Link.com,2013-01-21 03:53:00,
2013-01-20 23:08:00,71.1,67.4,29.92,NNE,22,1.1,-999.0,88,-99.99,,,0.01,Acu-Link.com,2013-01-21 04:08:00,
2013-01-20 23:23:00,70.2,68.4,29.91,SSE,157,4.7,-999.0,94,-99.99,,,0.01,Acu-Link.com,2013-01-21 04:23:00,
2013-01-20 23:38:00,69.3,68.1,29.92,ESE,112,1.7,-999.0,96,-99.99,,,0.09,Acu-Link.com,2013-01-21 04:38:00,
2013-01-20 23:53:00,68.5,68.2,29.91,ESE,112,1.7,-999.0,99,-99.99,,,0.22,Acu-Link.com,2013-01-21 04:53:00,